Metar/Speci

METEOROLOGICAL AERODROME REPORT
STASIUN METEOROLOGI HANG NADIM BATAM
ADDS - METARS form results

Aviation Digital Data Service (ADDS)

Output produced by METARs form (1232 UTC 23 June 2021)
found at http://www.aviationweather.gov/metar/data/
 
Forecast for: WIDD (HANG NADIM , ID)
Text: TAF WIDD 231100Z 2312/2412 23005KT 9999 FEW014
Forecast period: 1200 UTC 23 June 2021 to 1200 UTC 24 June 2021
Forecast type: FROM: standard forecast or significant change
Winds: from the SW (230 degrees) at 6 MPH (5 knots; 2.6 m/s)
Visibility: 6 or more miles (10+ km)
Ceiling: at least 12,000 feet AGL
Clouds: few clouds at 1400 feet AGL
Weather: no significant weather forecast for this period

Informasi METAR/SPECI dapat diakses juga di http://aviation.bmkg.go.id